Regional Weather Roundup
Issued by NWS

Home | Current Version | Previous Version | Graphics & Text | Print | Product List | Glossary On
Versions: 1 2 3 4 5 6 7 8 9 10 11 12 13 14 15 16 17 18 19 20 21 22 23 24 25 26 27 28 29 30 31 32 33 34 35 36 37 38 39 40 41 42 43 44 45 46 47 48 49 50
836
ASUS43 KIND 200209
RWRIN

WEATHER ROUNDUP FOR INDIANA
NATIONAL WEATHER SERVICE INDIANAPOLIS IN
900 PM EST MON FEB 19 2018

NOTE: "FAIR" INDICATES FEW OR NO CLOUDS BELOW 12,000 FEET WITH NO
SIGNIFICANT WEATHER AND/OR OBSTRUCTIONS TO VISIBILITY.

* - STATION DOES NOT REPORT WEATHER SUCH AS PRECIPITATION OR FOG.

+ - STATION NOT QUALITY CONTROLLED BY THE NATIONAL WEATHER SERVICE.
    USE DATA WITH CAUTION...ESPECIALLY DEWPOINT AND RELATIVE
    HUMIDITY OBSERVATIONS.

INZ001>003-010>013-019-020-200300-
NORTHWEST INDIANA

CITY           SKY/WX    TMP DP  RH WIND       PRES   REMARKS
GARY /AIRPORT/ LGT RAIN  59  57  94 S14G29    29.87S
LA PORTE +     CLOUDY    56  55  96 SW12      29.91R
MICHIGAN CITY+ CLOUDY    55  55 100 S13       29.88F
MONTICELLO +   CLOUDY    60  58  93 S14G22    29.91F
RENSSELAER +   CLOUDY    61  54  77 S18G24    29.89S
VALPARAISO     LGT RAIN  60  57  89 S14       29.89S

$$

LMZ046-743>745-200300-
SOUTHERN LAKE MICHIGAN

STATION/POSITION TIME  TEMP    WIND        PRES    WAVE
                       AIR SEA DIR/SP/G            HT
                 (UTC) (F)     (DEG/KT/KT) (MB)    (FT)
BURNS HARBOR     0140   58     180/ 16/ 21 1011.5F
MICHIGAN CITY    0140   58     170/ 16/ 20   N/A

$$

INZ004-005-014>016-021>024-200300-
NORTH CENTRAL INDIANA

CITY           SKY/WX    TMP DP  RH WIND       PRES   REMARKS
ELKHART        LGT RAIN  55  55 100 SW8       29.92S
GOSHEN         MOCLDY    60  55  83 S25G33    29.90F
LOGANSPORT +   RAIN      57  55  94 S12       29.95F
ROCHESTER +    FAIR      61  59  94 S17G30    29.95S
SOUTH BEND     CLOUDY    57  55  93 S14       29.92R
WARSAW +       LGT RAIN  59  55  88 S13G21    29.92F

$$

INZ006>009-017-018-025>027-200300-
NORTHEAST INDIANA

CITY           SKY/WX    TMP DP  RH WIND       PRES   REMARKS
AUBURN +       RAIN      59  55  88 SW8       29.97F
FORT WAYNE     LGT RAIN  59  57  93 SW13      30.01R
HUNTINGTON +   DRIZZLE   58  57  96 SW6       30.00R
KENDALLVILLE + RAIN      58  56  92 SW20G25   29.96F

$$

INZ028-029-035-036-043>045-051>053-200300-
WEST CENTRAL INDIANA

CITY           SKY/WX    TMP DP  RH WIND       PRES   REMARKS
CRAWFORDSVL +  CLOUDY    56  56 100 SE8       29.95F
GREENCASTLE +  FAIR      61  54  77 S12       29.98S
LAFAYETTE      CLOUDY    61  58  90 S12G18    29.92F
TERRE HAUTE    FAIR      64  55  72 S14G23    29.96F

$$

INZ030>032-037>040-046>048-054>057-064-065-200300-
CENTRAL INDIANA

CITY           SKY/WX    TMP DP  RH WIND       PRES   REMARKS
COLUMBUS       MOCLDY    64  46  52 S13       30.03R
FISHERS *+       N/A     54  54 100 S5        29.99F
FRANKFORT +    DRIZZLE   61  59  92 S10       29.98R
GREENWOOD *+   CLOUDY    62 -45   1 S9        30.01S
INDIANAPOLIS   CLOUDY    60  56  86 S10       29.98F
-EAGLE CREEK   FAIR      59  56  89 CALM      29.98F
KOKOMO +       LGT RAIN  59  57  93 W6        29.99S
MARION +       CLOUDY    57  56  97 CALM      29.99F FOG
MT COMFORT *+  CLOUDY    57  57 100 SE8       30.01S
SHELBYVILLE    MOCLDY    65  53  65 S14       30.01S
ZIONSVILLE +   CLOUDY    56  56  98 S6        29.99R

$$

INZ033-034-041-042-049-050-058-059-200300-
EAST CENTRAL INDIANA

CITY           SKY/WX    TMP DP  RH WIND       PRES   REMARKS
MUNCIE         CLOUDY    61  57  87 S7        30.00F
RICHMOND +     MOCLDY    55  54  94 S13       30.06S

$$

INZ060-061-067>069-081>083-085>088-200300-
SOUTHWEST INDIANA

CITY           SKY/WX    TMP DP  RH WIND       PRES   REMARKS
EVANSVILLE     FAIR      67  56  67 S15       30.02F
HUNTINGBURG +  FAIR      65  55  70 S13G18    30.04F
WASHINGTON +   MOCLDY    65  51  60 S15       30.01R

$$

INZ062-063-066-070>080-084-089>092-200300-
SOUTH CENTRAL AND SOUTHEAST INDIANA

CITY           SKY/WX    TMP DP  RH WIND       PRES   REMARKS
BATESVILLE +   CLEAR     64  54  68 MISG      30.05R
BEDFORD +      FAIR      66  50  55 S9        30.02R
BLOOMINGTON    FAIR      68  53  58 S17G28    30.01R
FRENCH LICK *+ FAIR      66  48  52 S9G21     30.05S
MADISON *+     FAIR      66  52  59 S13G21    30.09S
NORTH VERNON + FAIR      64  52  63 S15G21    30.06R
SEYMOUR +      FAIR      66  52  59 S13       30.04

$$





USA.gov is the U.S. government's official web portal to all federal, state and local government web resources and services.